GFSNW_850_spd_150.txt.gz
Wind_Speed
26 25 24 22 23 21 18 19 5 10 22 16 6 11 10 24 17 22 8 3 7 7 6 4 4 9 8 12 10 14 9 5 9 6 5 5 7 7 6 4 3 3 1 4
30 30 28 26 24 23 25 11 16 15 30 10 13 8 11 19 16 15 9 15 8 4 4 5 8 6 8 4 4 9 7 2 1 2 1 3 3 4 4 3 3 5 4 3
30 30 30 29 27 26 27 10 4 20 28 23 17 16 16 18 27 15 23 4 19 9 5 7 5 7 6 11 3 1 14 5 8 15 1 3 5 5 9 6 5 7 11 6
31 32 31 31 31 30 28 17 6 10 5 16 17 16 13 20 12 20 22 6 14 11 8 7 6 6 4 6 3 7 3 7 5 2 8 4 3 8 10 11 14 9 11 10
31 31 33 34 32 31 35 15 6 11 16 2 19 22 20 19 19 11 21 21 21 13 13 9 5 6 5 4 0 5 6 1 2 3 4 4 10 16 17 11 13 10 10 8
30 31 34 37 36 36 35 32 28 5 17 19 12 21 29 31 26 26 32 19 15 10 20 13 19 16 11 10 8 8 8 7 4 10 9 8 7 23 18 8 5 7 13 5
33 34 35 34 38 41 45 32 25 19 10 10 14 16 19 23 24 18 17 28 12 38 14 13 5 3 6 12 7 8 6 6 3 0 7 7 8 11 21 19 7 8 5 16
35 36 38 40 41 41 44 45 32 26 10 16 16 18 12 19 26 18 20 27 29 26 9 1 1 2 3 3 3 5 5 5 4 4 6 7 7 5 7 11 5 1 13 10
42 42 44 45 44 44 46 46 46 29 11 20 31 15 21 11 10 9 23 23 30 22 3 4 5 5 4 5 3 4 7 10 5 4 4 8 5 6 4 4 3 6 16 15
40 43 50 54 55 53 51 43 50 41 26 34 28 18 18 32 10 4 4 13 12 17 6 6 4 4 6 7 9 6 6 4 9 4 4 6 5 2 9 8 4 16 21 19
20 21 24 30 38 47 54 61 52 51 29 30 32 39 35 15 25 13 7 3 5 2 6 4 4 4 6 4 6 8 10 8 4 4 5 10 4 2 5 8 18 26 22 21
22 26 29 31 30 33 50 36 64 54 41 15 39 28 52 34 29 28 17 7 5 10 3 3 2 1 2 6 4 2 2 6 6 7 5 1 3 9 19 26 30 21 26 20
29 30 31 35 37 38 42 41 38 51 39 23 25 34 40 33 39 31 17 12 11 10 8 5 2 3 3 4 3 4 2 6 3 4 3 8 24 23 23 26 27 22 20 18
21 28 33 35 41 46 45 45 46 45 31 8 15 21 26 21 34 37 28 30 17 13 9 3 3 1 1 2 3 4 4 6 6 5 9 18 20 29 29 28 26 24 20 17
6 15 19 24 32 40 52 49 51 52 25 9 7 25 32 20 18 28 38 26 25 22 4 2 2 3 3 1 3 1 3 6 6 4 21 9 19 28 29 29 25 21 20 18
20 16 19 11 16 29 49 20 46 51 42 7 5 9 11 24 26 21 20 29 25 20 9 2 4 3 4 2 3 3 4 9 21 8 20 22 27 33 27 27 23 20 16 11
16 22 29 28 37 37 31 30 54 54 40 7 3 2 8 22 22 15 19 18 16 10 6 3 6 5 6 1 2 5 14 26 32 35 34 23 30 27 25 24 20 16 15 13
26 35 35 29 31 32 32 34 58 44 17 5 3 2 3 12 6 5 8 8 8 4 6 6 3 6 4 1 13 20 25 31 29 27 25 34 33 27 25 22 21 18 16 13
26 29 30 34 30 22 36 48 39 31 4 3 2 3 3 7 6 10 5 2 3 4 3 3 4 1 2 12 21 22 29 21 28 27 33 31 29 29 28 24 20 17 16 11
16 15 14 9 15 30 33 27 10 1 7 3 1 4 3 10 5 3 4 4 2 2 2 5 3 2 17 24 25 26 20 32 36 36 25 31 28 27 25 23 17 12 13 11
11 9 7 14 12 8 5 5 3 6 3 2 3 13 10 8 4 3 3 2 2 3 3 3 2 1 1 24 25 22 24 24 24 24 31 29 29 28 23 20 16 14 11 9
9 8 8 5 4 4 5 2 2 2 3 3 4 10 8 7 3 4 4 3 2 3 5 3 2 1 20 31 29 27 27 26 25 25 27 26 22 19 18 18 16 12 10 11
7 5 4 6 6 7 3 3 2 3 3 7 10 4 4 6 8 5 3 4 1 2 3 2 2 13 24 35 33 31 29 27 27 28 24 22 21 17 13 15 13 13 15 14
6 6 6 3 4 3 1 2 4 5 16 23 18 6 4 4 4 2 4 2 2 3 3 5 6 23 31 36 34 35 33 29 28 27 25 22 19 17 15 13 14 16 18 19
6 5 4 4 1 6 13 20 22 24 22 19 12 7 6 2 4 2 3 3 1 3 4 5 23 30 39 37 34 31 29 27 25 24 22 20 18 17 18 17 17 17 18 18
5 7 5 10 11 11 19 20 18 15 14 11 7 3 3 1 4 2 2 5 4 2 2 22 32 37 36 34 29 24 23 21 21 21 20 19 18 18 19 20 19 17 16 15
5 4 17 11 11 13 12 14 9 7 5 2 3 4 1 2 2 2 3 1 1 10 18 26 37 35 33 29 25 22 21 20 21 21 20 19 19 19 20 22 21 19 17 13

GFSNW_850_spd_156.txt.gz
Wind_Speed
26 28 27 24 24 24 23 17 4 11 25 11 5 8 8 9 9 4 5 3 1 2 4 4 3 2 2 6 5 6 4 3 3 12 2 2 2 5 6 6 7 3 5 16
25 27 29 27 26 27 29 9 13 16 27 9 9 11 13 8 3 5 4 6 7 4 4 4 6 7 8 10 2 2 2 2 3 4 3 2 3 5 4 3 3 7 7 10
27 28 33 30 27 28 28 8 4 9 22 22 14 18 18 14 10 16 12 5 6 5 8 5 6 4 3 7 1 3 4 3 3 7 3 2 5 16 6 6 3 13 8 3
27 26 25 34 31 27 27 12 5 7 6 10 16 10 8 18 12 15 14 8 15 7 2 4 16 13 13 17 16 2 4 6 5 12 9 9 6 7 15 13 13 8 15 12
25 23 20 27 30 28 28 9 5 5 4 10 13 9 15 21 18 10 8 14 15 9 14 20 3 3 3 7 2 2 3 5 5 8 19 12 7 9 7 10 11 10 14 21
25 25 25 25 30 30 19 27 18 3 8 5 5 13 18 6 18 18 23 14 11 8 18 10 19 27 22 11 4 3 1 2 2 10 9 6 6 18 12 6 6 9 13 24
22 24 24 27 29 31 31 24 19 11 7 8 12 2 8 15 19 14 15 19 10 19 17 24 15 13 15 10 11 12 6 4 2 5 1 8 5 2 12 16 20 14 14 2
20 21 23 27 29 30 34 33 24 16 7 13 10 10 12 19 22 13 10 17 14 19 20 6 5 3 3 12 11 9 10 5 2 4 4 5 8 5 7 8 13 15 15 5
25 26 27 28 31 33 35 38 39 17 8 13 11 14 13 5 3 2 9 13 19 14 3 3 6 5 5 4 3 4 7 8 7 3 4 6 5 4 2 4 7 6 6 14
30 31 31 32 33 34 36 33 41 33 16 14 24 13 13 14 9 3 2 3 6 11 6 6 8 5 5 6 4 3 4 3 13 9 5 6 6 6 4 4 6 2 12 20
32 34 36 36 37 36 36 41 39 44 21 23 26 32 24 16 23 9 6 3 3 0 7 5 2 2 5 4 5 6 7 7 4 5 5 8 6 1 6 3 4 14 21 24
36 38 40 41 44 45 41 42 41 39 24 14 27 43 35 38 29 24 16 8 6 12 5 1 2 3 1 2 3 2 4 6 5 7 5 2 3 4 4 10 20 17 28 27
44 42 42 44 46 45 49 49 37 36 33 17 28 20 37 36 34 29 18 14 18 19 8 1 2 3 3 4 4 2 3 5 3 2 2 2 9 11 12 18 22 23 26 25
26 25 26 26 28 33 53 55 48 42 17 8 14 19 41 22 30 40 38 31 17 10 11 4 2 3 5 4 3 5 5 3 5 2 2 12 10 15 23 27 27 28 24 24
29 31 31 31 30 27 44 53 50 49 33 6 7 18 22 19 39 28 36 30 27 18 4 3 2 2 0 1 0 3 9 7 6 6 15 6 10 22 26 29 23 22 25 24
29 29 32 33 33 27 37 13 47 49 51 8 1 7 13 31 28 40 34 34 32 23 11 5 3 4 9 3 3 5 19 14 14 8 23 10 26 25 19 23 25 24 23 21
20 20 26 39 36 42 30 13 11 59 44 11 4 3 5 16 19 23 23 23 16 20 10 6 3 3 5 2 7 4 8 10 14 22 23 22 29 22 22 27 26 23 22 20
5 5 10 26 40 39 27 5 4 49 37 13 4 3 5 17 8 6 12 10 12 9 8 5 4 5 4 5 5 5 9 17 23 28 20 33 28 27 29 28 27 25 24 22
14 14 21 32 30 18 21 14 33 44 14 4 3 7 4 12 5 7 5 6 2 5 3 4 9 3 6 5 9 18 25 19 24 17 18 33 32 34 32 29 25 23 23 21
9 7 7 7 16 35 34 29 13 10 8 6 2 5 4 12 4 3 6 5 3 3 4 9 3 3 9 14 13 20 24 24 32 34 23 31 34 36 32 26 22 19 21 20
7 6 15 52 45 27 6 6 5 5 3 5 6 5 5 6 3 3 4 3 3 3 3 4 2 3 2 14 20 23 19 29 23 22 28 33 40 37 32 26 22 20 19 18
19 23 25 13 4 4 4 3 3 2 5 4 3 6 7 7 5 3 4 2 2 3 7 3 2 2 13 18 21 20 24 28 21 20 33 33 34 30 28 26 23 20 17 15
14 7 2 1 0 5 5 5 3 4 5 8 7 5 6 5 4 3 2 3 3 6 1 3 3 10 22 24 25 24 25 24 24 26 30 30 28 25 23 23 20 18 17 17
3 2 4 3 2 2 1 2 4 5 13 20 18 5 3 3 2 2 4 2 2 2 3 5 3 18 28 28 28 30 26 25 27 29 28 27 25 25 22 19 18 18 18 19
3 3 2 3 2 2 3 10 14 21 28 21 13 6 4 2 3 1 3 2 3 5 4 2 13 28 33 33 31 29 27 28 28 29 29 28 26 24 23 19 17 17 18 20
4 6 2 5 5 7 14 19 20 21 23 12 6 3 2 1 3 2 3 5 5 3 2 7 24 32 33 32 29 28 27 28 29 29 27 25 23 21 20 20 18 18 18 19
5 4 10 8 8 6 8 14 12 14 3 2 2 3 2 2 2 2 1 1 1 2 2 12 25 35 34 32 30 28 27 28 28 26 24 21 20 20 20 21 21 19 18 16

GFSNW_850_spd_159.txt.gz
Wind_Speed
35 29 28 28 24 23 20 17 4 12 19 9 4 10 8 9 3 6 2 2 1 3 1 2 3 3 2 4 6 9 4 2 3 5 2 4 3 4 8 8 11 5 9 17
32 30 29 28 28 27 24 9 8 15 24 8 9 5 7 9 1 4 3 6 6 2 2 3 9 10 6 12 5 3 3 1 4 5 2 1 6 14 10 2 5 11 12 14
25 25 27 27 29 29 28 12 4 8 21 15 12 15 13 8 4 8 8 2 3 2 4 3 5 2 3 14 6 7 5 2 6 9 4 1 5 12 10 12 10 16 17 22
25 26 26 28 29 34 35 19 5 7 6 15 13 9 7 17 11 12 12 6 15 5 7 12 17 6 7 12 17 13 4 11 11 16 16 13 15 15 17 12 17 11 19 19
27 26 25 24 31 35 36 11 6 7 4 15 13 18 13 20 16 9 7 15 4 13 17 14 7 5 9 7 2 2 4 5 2 11 12 10 17 19 17 19 18 19 21 21
27 22 24 25 28 31 13 17 13 12 11 5 6 9 9 8 18 15 17 12 7 11 13 14 21 19 20 16 12 11 6 3 3 10 3 7 9 19 17 14 15 12 14 17
21 22 22 22 22 31 20 24 14 6 3 9 11 6 11 14 15 9 7 4 5 3 12 14 13 13 16 16 18 14 9 6 5 9 7 11 7 4 7 12 16 18 18 17
20 20 21 23 23 24 28 18 18 9 3 10 7 7 6 9 6 3 4 6 10 11 13 4 5 4 4 12 18 15 16 12 7 7 10 14 17 10 8 8 10 12 17 14
18 18 19 21 22 22 24 24 23 9 5 11 19 13 14 7 3 3 8 8 8 9 3 4 6 6 5 4 4 2 14 14 11 5 6 8 4 2 2 6 9 4 6 9
23 21 22 21 21 21 25 23 26 21 9 11 21 12 12 15 9 3 2 6 6 11 3 4 7 6 5 7 9 4 4 6 16 13 11 10 8 5 3 7 3 2 3 12
23 24 24 25 24 23 24 27 25 26 14 15 17 24 18 14 17 8 6 3 7 5 6 4 7 6 7 8 4 11 10 6 6 9 10 14 2 5 8 2 3 4 11 14
27 27 28 28 29 28 26 28 28 29 21 6 29 31 30 33 29 20 15 11 7 14 5 5 4 7 2 3 6 1 6 7 4 7 5 1 3 4 9 5 9 10 16 19
27 28 30 31 32 33 33 33 31 25 24 25 29 29 30 33 38 30 20 16 24 15 6 2 3 8 6 6 6 5 5 6 4 2 4 2 3 3 4 7 11 17 20 24
32 33 35 37 38 37 34 41 38 36 11 7 15 15 33 37 24 38 37 31 20 14 8 5 3 5 3 3 2 5 4 9 7 5 2 5 4 5 10 16 22 26 23 24
40 37 36 36 36 39 44 46 45 42 36 5 14 22 22 23 35 32 41 37 26 17 9 4 4 4 3 2 1 3 6 5 4 5 10 5 8 14 18 25 27 26 26 25
24 26 26 27 26 21 29 21 42 45 44 11 3 2 9 23 29 31 33 35 26 21 8 5 6 17 4 3 3 6 18 18 23 8 13 8 21 20 22 27 24 25 25 24
24 27 32 34 30 30 23 10 13 50 44 10 3 4 4 12 26 25 22 27 16 14 9 9 12 9 3 3 3 4 13 17 12 14 18 15 21 22 24 25 25 25 24 22
10 15 26 27 26 30 27 14 10 43 35 8 3 3 3 15 9 9 16 14 17 12 7 4 4 5 6 5 9 17 15 11 17 25 12 21 28 28 26 27 28 27 24 22
3 1 19 27 28 14 16 16 27 41 16 10 6 4 3 15 8 7 12 11 5 10 5 4 9 5 7 9 15 11 16 17 20 17 13 28 35 31 30 29 27 26 25 23
11 32 15 8 19 38 42 25 8 9 7 6 3 11 3 13 7 3 6 5 3 4 5 8 4 6 16 18 18 13 19 20 27 26 21 31 33 35 33 30 26 23 25 24
6 4 6 50 43 26 5 7 6 8 5 7 4 6 5 7 4 3 4 2 3 3 4 5 3 4 6 21 24 17 21 22 27 19 28 37 39 42 35 29 25 23 23 22
17 29 26 21 7 4 4 4 4 4 5 8 6 7 7 6 5 3 4 3 2 4 8 4 3 3 10 17 18 21 23 27 24 15 25 32 36 36 32 29 26 23 22 21
22 9 4 5 2 3 5 6 4 5 7 9 11 6 7 4 4 3 3 5 5 9 3 3 4 6 16 21 23 23 23 26 22 22 26 31 36 32 28 27 24 22 21 21
3 3 2 2 1 3 2 3 4 7 12 20 17 6 3 5 3 2 3 2 4 4 3 5 2 13 19 23 25 25 25 24 22 22 27 33 33 30 25 22 22 22 23 22
4 3 2 1 0 1 2 9 11 11 24 23 12 5 3 1 3 2 3 3 3 4 4 1 1 18 25 25 26 25 26 25 24 27 30 32 30 27 25 22 21 20 20 21
4 6 2 5 3 3 5 13 14 25 26 12 7 3 2 2 2 3 4 5 4 2 2 6 9 22 26 25 25 25 26 26 27 29 30 29 27 26 24 23 20 19 19 20
4 3 7 5 7 5 5 14 18 20 8 2 2 3 2 3 2 2 1 2 1 5 4 2 12 25 26 26 25 24 24 26 27 28 27 26 25 23 24 24 23 20 18 17

GFSNW_850_spd_162.txt.gz
Wind_Speed
28 28 32 33 30 32 29 22 4 18 27 13 7 11 20 11 9 14 7 6 12 13 9 7 6 7 1 5 11 8 5 4 8 15 8 8 10 13 15 10 12 12 14 19
24 24 31 35 34 38 36 10 5 22 27 9 10 15 21 23 7 9 9 11 9 8 11 8 12 11 6 8 6 4 8 2 6 11 12 10 8 13 9 6 5 17 14 17
23 26 27 35 35 37 32 12 5 7 17 15 18 19 19 17 14 18 10 7 5 8 12 13 8 7 4 8 12 8 6 9 12 13 14 2 8 11 10 10 4 10 14 22
23 22 23 29 34 36 31 11 5 10 5 13 15 17 12 22 16 15 12 13 11 10 12 12 13 13 13 15 11 5 6 15 14 19 18 15 18 21 21 15 17 13 20 20
23 21 21 26 30 33 31 12 7 7 11 24 19 16 17 24 18 20 11 14 9 11 19 17 13 1 4 7 7 6 1 7 9 17 16 16 21 24 23 21 23 23 24 27
24 25 25 23 24 35 11 18 16 12 12 13 14 18 23 20 18 18 16 12 11 13 13 10 14 16 17 15 13 11 11 8 7 15 10 8 9 21 21 17 23 22 20 26
18 20 22 24 25 29 26 19 15 14 7 14 18 16 22 18 15 9 5 9 12 3 4 10 14 17 19 20 20 19 14 13 10 12 12 16 14 14 11 14 18 18 19 23
20 22 24 21 23 26 28 17 15 8 3 14 15 15 12 11 12 11 10 9 9 4 4 5 6 9 12 22 22 21 18 15 12 12 13 17 20 16 15 13 19 14 18 18
17 16 15 15 21 23 23 23 23 10 6 8 15 16 19 12 10 9 10 10 11 9 4 3 4 5 8 7 8 14 23 19 14 14 15 19 19 4 6 8 16 13 13 12
14 15 16 17 17 18 23 17 15 14 6 8 20 13 13 16 13 9 8 11 9 13 6 9 12 12 13 8 14 8 7 12 17 16 17 18 21 18 10 12 10 3 2 4
17 17 16 16 16 17 19 15 18 17 7 13 11 16 16 14 19 12 10 8 10 8 7 7 10 11 12 14 19 16 13 9 10 13 19 20 16 11 19 6 3 3 2 5
16 16 18 19 19 19 20 16 18 18 12 6 15 19 21 24 22 19 15 15 7 10 6 8 7 11 7 11 15 17 16 14 12 8 6 5 2 8 4 5 6 3 8 12
20 21 22 24 24 23 24 21 17 17 15 15 20 24 22 25 26 22 19 19 21 21 13 10 6 9 8 12 16 12 10 12 8 12 12 14 8 4 2 4 7 3 11 18
21 23 25 26 26 27 26 29 27 23 9 7 15 15 25 28 24 25 25 25 19 14 17 16 6 7 5 9 9 15 11 10 12 14 14 6 10 8 4 1 9 13 16 18
25 26 27 29 29 30 29 30 34 32 23 3 4 11 17 16 21 28 29 30 27 22 11 6 7 5 5 10 5 11 13 8 7 7 5 9 9 9 8 14 17 18 22 24
37 37 38 38 36 32 26 22 38 27 38 8 4 3 3 12 21 21 25 23 26 24 18 9 14 20 6 4 5 13 18 16 15 14 9 10 5 11 15 17 19 19 20 21
24 23 22 25 27 30 36 10 13 30 36 6 3 5 7 13 18 24 19 21 15 17 13 14 22 13 8 4 10 5 6 9 9 7 10 10 18 13 17 20 20 21 20 21
20 26 28 28 25 24 26 11 11 27 34 8 3 3 5 16 8 8 14 11 17 13 13 9 12 13 9 7 12 18 21 14 10 15 14 11 20 23 21 21 24 24 22 22
10 17 24 23 22 19 23 22 19 38 10 10 6 7 3 16 12 10 14 13 6 8 6 10 7 7 8 10 17 20 16 12 12 15 9 19 23 28 26 25 24 24 23 21
11 23 13 8 19 26 25 24 8 8 5 5 3 13 4 9 11 7 9 9 6 5 8 6 5 13 28 26 25 20 16 15 19 19 18 22 24 31 28 28 23 22 23 23
4 4 4 37 37 24 6 7 6 7 5 8 8 12 7 8 9 5 10 4 4 4 5 6 4 6 15 27 32 27 20 19 22 17 18 24 35 34 30 26 22 23 23 22
6 27 28 13 7 5 5 6 5 7 6 10 8 10 12 6 5 4 5 3 4 4 10 4 4 6 14 11 17 21 19 19 19 17 19 25 30 27 27 26 25 24 24 24
29 6 4 6 3 4 6 9 4 5 7 12 12 6 8 5 5 3 3 6 5 7 4 4 5 1 2 6 10 14 15 18 18 19 20 26 27 26 28 29 27 25 22 22
3 4 5 4 4 5 4 8 7 7 13 22 25 9 4 4 5 2 4 3 3 4 4 5 1 4 7 9 15 19 22 23 23 23 26 30 32 32 28 25 24 24 24 23
3 1 2 3 1 2 2 5 9 9 22 26 14 6 4 3 3 3 2 5 4 5 3 2 8 1 10 14 17 19 22 23 24 26 29 31 33 30 27 24 24 22 21 21
2 3 1 2 3 3 4 7 10 18 24 16 6 4 4 4 3 5 5 3 5 1 2 7 7 3 10 15 17 18 22 23 23 25 27 30 32 28 26 26 23 21 19 20
2 2 4 3 6 5 5 13 10 19 13 3 3 3 2 4 3 4 2 2 3 5 6 5 3 6 13 16 17 18 20 20 21 24 28 31 29 26 25 25 23 20 19 19

GFSNW_850_spd_165.txt.gz
Wind_Speed
25 27 29 28 27 25 28 27 6 15 24 14 9 14 24 29 17 19 12 12 18 19 19 18 17 16 5 11 8 6 5 5 11 16 19 12 13 16 19 12 14 9 15 19
21 23 26 29 28 29 32 17 18 16 23 9 14 21 24 29 23 18 15 16 16 18 19 17 15 13 14 3 5 5 6 5 11 18 18 19 14 15 21 17 14 17 15 15
22 22 23 26 26 28 37 14 5 9 22 26 21 22 22 20 27 24 18 17 13 18 18 16 12 12 5 3 2 4 5 13 18 14 17 7 3 7 12 3 6 16 14 21
22 23 23 23 26 30 40 20 6 13 7 10 20 19 14 20 18 16 17 19 16 17 16 17 18 18 16 13 11 14 9 15 17 22 24 25 25 24 16 18 16 15 19 21
22 22 23 23 23 25 35 9 6 10 12 28 20 17 19 21 16 21 13 15 18 21 19 16 15 10 14 16 9 12 12 14 15 20 21 22 25 27 26 24 25 25 25 26
23 22 24 24 24 24 15 14 14 12 16 14 15 17 20 18 17 20 10 14 11 15 15 11 13 14 14 11 11 13 13 10 12 18 16 16 14 25 20 18 21 21 22 26
20 22 22 23 25 24 20 19 13 6 6 12 15 18 22 20 18 17 5 10 14 3 4 8 11 14 17 19 18 20 18 17 13 15 17 20 18 16 19 22 17 17 22 23
17 17 18 22 27 26 28 15 12 6 7 14 17 20 18 20 19 11 12 5 3 2 5 4 6 9 15 22 23 20 20 17 14 15 17 20 20 22 17 12 20 20 19 18
16 17 18 18 16 20 25 16 12 5 3 7 6 7 23 13 13 13 14 9 10 9 2 3 4 9 13 6 19 26 24 21 14 15 16 22 24 22 27 11 17 16 21 21
13 13 12 10 14 14 23 16 13 11 8 11 10 8 10 19 13 9 12 16 13 12 6 7 9 13 11 11 10 11 17 18 20 16 17 21 24 24 18 12 13 3 15 7
11 11 10 9 9 9 7 9 12 8 5 1 6 13 13 7 13 12 12 11 12 9 8 9 10 11 16 18 21 21 9 5 8 15 20 19 21 20 22 20 14 4 7 6
11 11 11 10 11 10 9 6 6 9 4 3 5 12 13 19 18 14 11 10 11 17 7 8 9 10 10 15 16 19 18 16 13 8 5 8 7 10 12 7 5 4 5 4
13 13 12 14 15 14 13 9 7 6 5 11 16 18 17 21 22 19 19 18 19 17 12 7 6 10 11 14 17 18 20 22 16 19 20 20 28 16 8 5 4 6 5 6
14 15 16 15 15 16 16 15 12 11 4 5 13 15 23 25 19 22 21 20 18 19 20 17 8 9 12 13 17 15 14 9 13 15 18 24 16 13 11 8 6 9 12 15
18 18 18 19 20 20 20 19 20 19 16 4 3 7 16 17 22 24 25 25 26 23 16 8 11 19 15 13 12 15 18 17 10 10 16 11 13 4 7 6 9 13 20 21
22 23 24 23 23 22 18 16 28 26 23 7 4 5 9 14 21 25 25 31 28 25 20 11 19 17 5 4 11 19 26 29 31 22 21 11 12 6 9 12 14 15 18 21
26 29 30 29 28 27 25 5 2 16 29 8 4 4 8 12 16 18 23 21 23 20 22 19 18 17 6 8 16 21 28 26 17 9 6 6 6 5 13 17 16 18 20 20
25 23 23 25 29 33 38 39 10 9 26 7 4 3 5 9 7 9 21 12 15 10 9 11 14 20 15 9 17 21 22 21 13 11 11 12 11 13 16 19 22 23 22 22
19 18 14 22 18 22 34 31 32 24 11 6 6 7 4 10 9 8 13 11 5 8 7 13 9 8 11 12 19 21 16 16 15 13 12 13 17 20 21 23 23 23 23 21
18 14 11 7 13 19 26 15 9 11 5 7 4 16 6 13 11 9 10 8 5 5 10 12 10 16 29 32 29 24 20 16 15 17 17 19 21 23 25 26 23 22 23 22
15 9 8 28 35 15 5 6 6 9 4 9 11 16 8 11 6 7 12 5 5 4 6 9 6 10 17 34 38 36 31 24 20 21 16 17 21 27 27 24 23 22 22 21
9 15 29 15 7 6 5 7 6 7 6 10 11 14 16 8 8 6 7 4 4 5 8 4 4 7 18 20 19 18 24 26 21 20 15 17 22 26 26 26 24 24 22 25
28 13 5 6 5 6 6 10 5 5 7 10 14 6 9 6 9 3 4 4 4 8 3 4 4 1 4 5 5 6 7 14 15 15 16 20 23 26 26 28 29 29 28 26
5 5 5 5 5 6 4 8 9 9 13 19 21 13 5 5 6 3 4 5 3 4 4 5 2 8 7 4 3 5 8 13 19 20 24 23 29 30 29 30 29 27 26 25
2 3 3 4 1 4 5 5 7 12 16 22 16 6 6 5 3 3 2 4 5 5 3 3 7 8 3 3 6 11 15 18 18 22 29 33 34 33 29 27 26 24 23 23
1 2 2 1 2 2 3 4 6 11 17 19 9 4 4 4 3 5 6 3 4 2 3 7 9 6 4 6 8 9 13 15 21 27 29 32 32 30 27 26 24 21 21 21
2 2 3 3 5 4 4 12 9 16 19 4 2 6 6 3 4 5 3 2 3 6 7 7 7 6 6 7 9 10 14 17 20 23 24 27 28 27 26 24 23 21 20 19

GFSNW_850_spd_171.txt.gz
Wind_Speed
21 20 19 21 20 18 17 18 4 12 14 15 4 8 6 13 19 20 13 11 13 13 14 14 10 12 4 9 6 3 5 3 5 6 4 8 2 4 3 2 1 3 3 4
20 19 18 17 16 17 17 14 11 17 16 9 11 10 14 13 15 16 9 10 13 14 11 8 11 9 3 6 4 3 5 4 4 8 2 1 4 4 3 3 2 2 1 4
18 18 18 15 13 14 16 9 3 12 20 19 9 18 17 17 22 21 22 16 18 16 12 12 5 7 5 7 5 6 7 1 3 5 8 6 5 7 7 6 3 3 4 11
18 16 16 14 13 12 14 9 5 7 3 8 8 10 6 16 18 20 22 15 19 17 13 10 10 10 5 2 5 4 4 6 8 15 17 12 14 14 12 7 7 5 14 12
17 16 15 14 13 12 14 8 6 10 12 18 9 12 11 19 19 14 14 17 11 11 14 5 5 7 2 3 6 5 6 6 5 9 13 15 15 13 15 11 8 13 13 15
16 16 14 14 13 14 11 13 15 11 9 6 8 13 18 22 21 23 23 11 2 9 7 9 9 6 8 5 0 3 5 4 5 8 6 7 5 11 8 7 6 8 9 15
15 16 16 16 16 18 20 15 11 6 10 7 11 15 18 24 26 25 16 9 8 7 10 4 2 7 6 7 6 7 8 4 3 3 2 3 8 9 10 11 14 12 12 11
17 16 16 16 17 20 22 21 19 10 8 14 17 21 21 23 36 25 10 16 26 18 10 3 1 2 2 7 11 11 10 11 3 2 3 10 15 19 4 13 17 19 14 9
14 14 15 15 16 18 21 22 22 15 9 13 21 7 11 9 5 10 8 17 24 17 3 3 4 3 4 4 4 17 14 13 7 2 5 10 20 11 14 5 9 5 4 4
14 14 14 13 13 15 17 19 20 21 10 19 10 3 3 6 3 2 7 8 5 7 2 3 3 4 2 3 3 3 0 2 8 12 7 11 9 10 25 15 10 14 19 12
10 11 11 11 11 13 15 16 19 26 7 10 7 7 8 4 2 2 8 7 3 1 3 3 4 4 5 5 4 3 4 3 2 2 6 13 11 15 6 3 9 16 19 7
7 6 8 9 8 5 6 3 6 18 14 5 7 12 10 8 8 8 5 3 2 3 2 2 3 1 1 4 2 2 3 4 2 4 5 7 13 18 29 23 22 22 22 11
6 7 7 7 7 7 5 2 3 3 6 9 9 9 5 6 4 6 6 5 7 4 4 1 2 1 2 3 4 4 3 6 4 4 3 5 8 15 14 22 18 12 2 19
6 7 7 7 6 5 4 4 5 3 5 3 3 7 9 10 10 10 11 9 9 5 9 4 2 2 4 3 4 3 5 3 5 12 10 11 12 14 24 25 11 3 8 22
7 7 7 6 5 5 5 8 8 5 4 4 9 22 14 12 11 15 15 14 16 17 7 3 4 4 1 3 1 5 4 7 4 7 11 17 18 15 17 16 16 16 10 10
9 9 8 7 7 6 6 4 5 13 7 4 3 6 10 9 12 14 18 18 20 18 14 5 6 9 1 3 3 4 20 29 31 24 34 28 22 23 21 15 18 13 15 16
11 9 9 9 9 10 8 2 1 3 13 4 4 4 3 4 10 11 14 14 15 14 11 6 9 7 5 2 11 16 25 37 33 28 25 15 14 11 6 15 16 15 17 19
12 12 11 10 11 13 17 18 9 1 9 5 2 4 2 4 3 2 6 8 8 5 6 5 5 7 8 6 11 17 23 29 30 30 27 20 15 7 12 16 16 20 23 25
12 14 14 14 19 14 21 15 15 19 7 3 4 2 2 4 2 4 4 7 1 6 3 3 7 3 6 7 15 23 29 26 13 11 16 18 12 20 17 19 21 25 28 31
19 18 10 7 10 17 12 9 7 6 7 8 4 6 3 7 5 4 3 5 3 2 6 8 3 8 26 27 26 24 24 23 16 18 20 21 20 21 23 24 25 29 31 29
12 10 9 5 10 13 9 6 6 7 3 8 10 23 9 9 3 3 7 3 2 2 4 6 3 4 13 32 37 38 38 39 37 32 20 19 23 27 24 26 28 29 28 27
12 8 13 16 7 5 4 5 4 5 5 8 5 11 20 9 10 3 5 3 2 4 2 1 3 3 13 6 12 15 23 28 32 35 33 26 21 23 22 28 30 28 25 25
13 7 6 7 6 6 5 7 4 4 5 9 13 2 11 6 6 3 2 2 4 4 4 3 1 12 19 16 14 10 9 10 13 15 25 23 24 24 21 26 28 24 28 27
6 7 5 4 4 5 5 4 5 10 11 13 18 6 3 6 3 3 3 5 1 2 1 3 1 9 11 11 13 12 13 12 9 8 23 28 26 23 21 24 26 27 30 29
5 5 4 6 8 3 4 7 4 10 14 13 10 3 5 2 2 3 2 2 3 4 0 1 6 9 13 13 13 9 5 3 3 15 21 22 22 20 24 25 25 26 27 27
4 5 4 7 3 1 5 6 5 10 16 13 9 3 3 4 3 3 5 2 2 1 1 4 8 13 13 13 10 7 4 1 3 7 10 13 15 19 25 26 23 24 26 24
2 2 4 6 8 5 3 4 4 2 9 3 3 4 7 1 1 3 2 2 1 2 2 6 10 12 11 8 9 6 4 2 4 8 13 14 18 23 24 25 25 24 23 21

GFSNW_850_spd_174.txt.gz
Wind_Speed
19 18 18 18 19 17 15 12 4 6 11 9 6 5 7 11 19 12 8 10 8 5 4 7 4 6 4 4 0 2 0 2 4 6 6 2 5 2 1 3 2 3 5 3
16 17 15 14 14 13 16 7 7 11 13 6 10 5 13 10 12 4 4 6 5 3 3 4 3 3 2 8 5 3 2 2 4 6 3 5 7 3 2 4 2 2 3 2
17 16 16 15 14 15 15 5 2 5 16 22 11 8 8 9 21 18 17 10 12 12 11 7 6 5 4 4 5 9 5 4 7 9 3 2 2 4 6 6 2 2 5 15
16 16 15 13 13 13 15 9 4 3 2 6 11 15 9 15 17 22 16 6 16 14 8 11 10 3 3 3 7 1 1 6 5 10 10 9 10 8 8 9 11 8 15 14
17 15 14 13 12 13 15 7 4 3 7 11 6 7 6 15 17 4 11 13 16 15 14 14 9 3 3 1 3 2 4 3 2 8 15 7 9 10 9 7 9 10 11 11
16 16 15 14 14 15 9 11 10 5 6 1 1 3 5 8 15 15 25 24 17 15 13 13 12 14 9 7 4 0 3 1 2 5 9 3 5 10 9 4 4 6 6 11
14 14 14 13 14 17 17 12 7 5 5 6 5 8 14 16 15 18 28 23 18 27 10 9 9 9 13 11 7 13 6 3 2 3 5 5 6 3 3 6 4 5 5 10
12 13 15 16 16 17 19 18 14 7 4 9 9 13 13 19 23 22 28 33 32 13 12 3 4 3 2 6 11 12 8 5 3 3 5 6 10 1 1 2 6 8 6 9
13 14 15 15 15 17 19 18 18 14 5 7 20 12 20 14 12 15 24 33 29 19 3 3 5 4 5 5 4 16 11 5 4 4 4 4 7 3 5 4 9 6 10 7
12 13 13 14 14 15 18 19 22 20 12 22 25 12 11 9 6 4 2 8 9 23 4 3 3 3 5 5 5 4 5 3 10 7 6 5 2 5 7 3 7 8 10 18
10 12 13 13 14 15 17 19 19 23 12 23 25 19 11 9 7 3 2 4 2 2 2 3 4 3 5 3 3 5 5 5 4 3 4 6 3 9 1 3 11 15 18 20
8 8 10 11 11 11 12 13 11 18 22 10 8 18 18 15 13 10 3 2 4 4 2 3 3 2 1 4 3 2 3 5 4 7 6 5 11 7 11 11 10 14 20 20
6 6 6 7 8 10 9 7 7 8 10 12 16 15 11 14 13 7 2 2 4 2 2 2 2 2 3 3 4 2 2 2 3 2 3 5 11 18 17 11 18 19 15 14
6 6 6 6 6 5 5 7 7 5 3 2 5 7 8 7 9 8 8 2 4 4 2 3 1 1 4 3 4 5 5 2 3 5 5 13 15 8 15 18 17 17 16 16
6 7 7 6 6 6 8 8 7 6 6 3 9 22 12 10 13 12 12 10 9 5 0 0 2 2 1 2 1 3 6 6 4 6 8 13 14 24 20 20 21 27 19 18
7 6 6 6 6 7 6 3 4 12 11 5 4 6 11 12 9 11 12 16 15 14 6 4 7 12 7 3 4 5 19 24 24 20 24 25 29 32 30 24 24 18 11 18
8 8 8 7 7 9 6 3 1 5 6 3 6 6 5 6 4 6 9 12 14 13 11 8 7 9 5 2 13 9 16 20 27 28 25 21 28 19 14 18 12 12 14 19
8 7 7 10 11 12 16 16 11 3 6 4 2 4 5 3 3 3 5 5 9 7 8 3 3 6 7 8 9 23 32 35 32 35 31 29 28 16 13 13 14 13 18 24
7 11 10 13 16 10 18 13 14 15 10 4 4 2 3 3 3 3 2 4 0 4 3 3 6 3 7 11 18 26 28 29 29 15 11 6 12 14 18 18 19 19 21 24
13 12 6 5 7 12 6 7 6 6 7 8 3 6 3 6 5 2 0 3 2 2 5 5 4 6 28 27 31 30 26 28 24 21 13 19 23 20 19 24 22 19 22 25
11 6 8 6 5 12 7 5 6 6 3 7 8 18 8 8 3 3 5 2 2 2 3 4 3 3 4 23 27 35 30 26 21 23 24 22 21 20 25 27 22 21 22 28
12 6 9 10 7 6 5 4 3 5 4 6 4 7 13 6 8 3 4 2 3 5 4 2 3 1 13 18 18 9 8 18 26 31 34 35 31 25 25 30 25 23 24 27
14 8 5 5 6 5 5 7 4 3 5 8 8 2 8 4 7 4 2 3 4 2 2 3 2 4 11 14 17 12 9 10 14 18 20 21 27 26 28 29 26 23 26 26
8 7 5 5 4 5 5 4 4 11 7 10 18 6 4 5 4 2 2 3 2 2 2 3 1 5 11 12 13 11 12 13 13 12 12 20 24 27 27 27 21 25 28 29
5 6 5 6 8 7 6 5 11 11 17 7 6 3 5 2 1 3 0 3 3 3 3 1 2 6 12 13 14 13 11 10 11 7 3 15 22 25 25 21 21 25 26 27
4 7 3 4 2 3 5 6 8 6 10 11 3 3 2 3 3 3 5 2 4 1 0 2 6 11 15 13 11 10 8 5 5 3 5 13 18 19 18 18 20 23 22 24
4 4 8 7 7 9 7 6 6 4 11 3 2 4 7 1 2 3 1 2 0 1 2 5 8 15 22 14 9 9 7 4 3 3 6 7 9 9 14 20 22 20 20 19